Time,TemperatureF,DewpointF,PressureIn,WindDirection,WindDirectionDegrees,WindSpeedMPH,WindSpeedGustMPH,Humidity,HourlyPrecipIn,Conditions,Clouds,dailyrainin,SoftwareType,DateUTC
2013-08-08 00:01:00,65.2,57.4,29.93,WSW,246,0.0,0.0,76,0.00,,,0.00,WeatherCatV1.21B27,2013-08-08 07:01:00,
2013-08-08 00:06:00,65.0,57.6,29.93,WSW,246,0.0,0.0,77,0.00,,,0.00,WeatherCatV1.21B27,2013-08-08 07:06:00,
2013-08-08 00:11:00,64.9,57.5,29.93,WSW,246,0.0,0.0,77,0.00,,,0.00,WeatherCatV1.21B27,2013-08-08 07:11:00,
2013-08-08 00:16:00,64.8,57.8,29.93,WSW,246,0.0,0.0,78,0.00,,,0.00,WeatherCatV1.21B27,2013-08-08 07:16:00,
2013-08-08 00:21:00,64.7,57.7,29.92,WSW,254,0.0,0.0,78,0.00,,,0.00,WeatherCatV1.21B27,2013-08-08 07:21:00,
2013-08-08 00:26:00,64.7,57.7,29.93,WSW,254,0.0,0.0,78,0.00,,,0.00,WeatherCatV1.21B27,2013-08-08 07:26:00,
2013-08-08 00:31:00,64.7,57.7,29.92,West,260,0.0,0.0,78,0.00,,,0.00,WeatherCatV1.21B27,2013-08-08 07:31:00,
2013-08-08 00:36:00,64.7,57.7,29.92,West,260,0.0,0.0,78,0.00,,,0.00,WeatherCatV1.21B27,2013-08-08 07:36:00,
2013-08-08 00:41:00,64.7,57.7,29.92,West,260,0.0,0.0,78,0.00,,,0.00,WeatherCatV1.21B27,2013-08-08 07:41:00,
2013-08-08 00:46:00,64.7,57.7,29.92,West,260,0.0,0.0,78,0.00,,,0.00,WeatherCatV1.21B27,2013-08-08 07:46:00,
2013-08-08 00:51:00,64.5,57.8,29.92,West,260,0.0,0.0,79,0.00,,,0.00,WeatherCatV1.21B27,2013-08-08 07:51:00,
2013-08-08 00:56:00,64.4,57.7,29.92,West,260,0.0,0.0,79,0.00,,,0.00,WeatherCatV1.21B27,2013-08-08 07:56:00,
2013-08-08 01:01:00,64.3,57.6,29.92,West,260,0.0,0.0,79,0.00,,,0.00,WeatherCatV1.21B27,2013-08-08 08:01:00,
2013-08-08 01:06:00,64.2,57.5,29.92,West,262,0.0,0.0,79,0.00,,,0.00,WeatherCatV1.21B27,2013-08-08 08:06:00,
2013-08-08 01:11:00,64.1,57.8,29.92,West,262,0.0,0.0,80,0.00,,,0.00,WeatherCatV1.21B27,2013-08-08 08:11:00,
2013-08-08 01:16:00,64.0,57.7,29.92,West,261,0.0,0.0,80,0.00,,,0.00,WeatherCatV1.21B27,2013-08-08 08:16:00,
2013-08-08 01:21:00,63.8,57.5,29.92,West,261,0.0,0.0,80,0.00,,,0.00,WeatherCatV1.21B27,2013-08-08 08:21:00,
2013-08-08 01:26:00,63.7,57.4,29.92,West,261,0.0,0.0,80,0.00,,,0.00,WeatherCatV1.21B27,2013-08-08 08:26:00,
2013-08-08 01:31:00,63.6,57.3,29.92,West,262,0.0,0.0,80,0.00,,,0.00,WeatherCatV1.21B27,2013-08-08 08:31:00,
2013-08-08 01:36:00,63.4,57.5,29.92,West,261,0.0,0.0,81,0.00,,,0.00,WeatherCatV1.21B27,2013-08-08 08:36:00,
2013-08-08 01:41:00,63.3,57.4,29.92,West,262,0.0,0.0,81,0.00,,,0.00,WeatherCatV1.21B27,2013-08-08 08:41:00,
2013-08-08 01:46:00,63.1,57.2,29.92,West,262,0.0,0.0,81,0.00,,,0.00,WeatherCatV1.21B27,2013-08-08 08:46:00,
2013-08-08 01:51:00,63.0,57.4,29.92,West,262,0.0,0.0,82,0.00,,,0.00,WeatherCatV1.21B27,2013-08-08 08:51:00,
2013-08-08 01:56:00,62.9,57.3,29.92,West,261,0.0,0.0,82,0.00,,,0.00,WeatherCatV1.21B27,2013-08-08 08:56:00,
2013-08-08 02:01:00,62.7,57.1,29.92,West,262,0.0,0.0,82,0.00,,,0.00,WeatherCatV1.21B27,2013-08-08 09:01:00,
2013-08-08 02:06:00,62.6,57.0,29.92,West,263,0.0,0.0,82,0.00,,,0.00,WeatherCatV1.21B27,2013-08-08 09:06:00,
2013-08-08 02:11:00,62.5,57.3,29.92,West,260,0.0,0.0,83,0.00,,,0.00,WeatherCatV1.21B27,2013-08-08 09:11:00,
2013-08-08 02:16:00,62.4,57.2,29.92,West,261,0.0,0.0,83,0.00,,,0.00,WeatherCatV1.21B27,2013-08-08 09:16:00,
2013-08-08 02:21:00,62.3,57.1,29.92,West,261,0.0,0.0,83,0.00,,,0.00,WeatherCatV1.21B27,2013-08-08 09:21:00,
2013-08-08 02:26:00,62.2,57.0,29.92,West,261,0.0,0.0,83,0.00,,,0.00,WeatherCatV1.21B27,2013-08-08 09:26:00,
2013-08-08 02:31:00,62.1,56.9,29.92,West,261,0.0,0.0,83,0.00,,,0.00,WeatherCatV1.21B27,2013-08-08 09:31:00,
2013-08-08 02:36:00,62.0,56.8,29.92,West,260,0.0,0.0,83,0.00,,,0.00,WeatherCatV1.21B27,2013-08-08 09:36:00,
2013-08-08 02:41:00,61.9,56.7,29.92,West,261,0.0,0.0,83,0.00,,,0.00,WeatherCatV1.21B27,2013-08-08 09:41:00,
2013-08-08 02:46:00,61.8,56.6,29.92,West,260,0.0,0.0,83,0.00,,,0.00,WeatherCatV1.21B27,2013-08-08 09:46:00,
2013-08-08 02:51:00,61.7,56.5,29.92,West,261,0.0,0.0,83,0.00,,,0.00,WeatherCatV1.21B27,2013-08-08 09:51:00,
2013-08-08 02:56:00,61.5,56.6,29.92,West,261,0.0,0.0,84,0.00,,,0.00,WeatherCatV1.21B27,2013-08-08 09:56:00,
2013-08-08 03:01:00,61.4,56.5,29.92,West,261,0.0,0.0,84,0.00,,,0.00,WeatherCatV1.21B27,2013-08-08 10:01:00,
2013-08-08 03:06:00,61.3,56.4,29.92,West,261,0.0,0.0,84,0.00,,,0.00,WeatherCatV1.21B27,2013-08-08 10:06:00,
2013-08-08 03:11:00,61.2,56.3,29.92,West,261,0.0,0.0,84,0.00,,,0.00,WeatherCatV1.21B27,2013-08-08 10:11:00,
2013-08-08 03:16:00,61.1,56.2,29.92,West,261,0.0,0.0,84,0.00,,,0.00,WeatherCatV1.21B27,2013-08-08 10:16:00,
2013-08-08 03:21:00,60.9,56.0,29.92,West,260,0.0,0.0,84,0.00,,,0.00,WeatherCatV1.21B27,2013-08-08 10:21:00,
2013-08-08 03:26:00,60.8,55.9,29.92,West,261,0.0,0.0,84,0.00,,,0.00,WeatherCatV1.21B27,2013-08-08 10:26:00,
2013-08-08 03:31:00,60.7,55.8,29.92,West,261,0.0,0.0,84,0.00,,,0.00,WeatherCatV1.21B27,2013-08-08 10:31:00,
2013-08-08 03:36:00,60.5,55.6,29.92,West,261,0.0,0.0,84,0.00,,,0.00,WeatherCatV1.21B27,2013-08-08 10:36:00,
2013-08-08 03:41:00,60.4,55.5,29.92,West,261,0.0,0.0,84,0.00,,,0.00,WeatherCatV1.21B27,2013-08-08 10:41:00,
2013-08-08 03:46:00,60.3,55.4,29.92,West,261,0.0,0.0,84,0.00,,,0.00,WeatherCatV1.21B27,2013-08-08 10:46:00,
2013-08-08 03:51:00,60.2,55.3,29.92,West,261,0.0,0.0,84,0.00,,,0.00,WeatherCatV1.21B27,2013-08-08 10:51:00,
2013-08-08 03:56:00,60.0,55.2,29.91,West,261,0.0,0.0,84,0.00,,,0.00,WeatherCatV1.21B27,2013-08-08 10:56:00,
2013-08-08 04:01:00,59.9,55.4,29.91,West,261,0.0,0.0,85,0.00,,,0.00,WeatherCatV1.21B27,2013-08-08 11:01:00,
2013-08-08 04:06:00,59.8,55.0,29.91,West,261,0.0,0.0,84,0.00,,,0.00,WeatherCatV1.21B27,2013-08-08 11:06:00,
2013-08-08 04:11:00,59.6,55.1,29.91,West,261,0.0,0.0,85,0.00,,,0.00,WeatherCatV1.21B27,2013-08-08 11:11:00,
2013-08-08 04:16:00,59.5,55.0,29.91,West,261,0.0,0.0,85,0.00,,,0.00,WeatherCatV1.21B27,2013-08-08 11:16:00,
2013-08-08 04:21:00,59.4,54.9,29.91,West,261,0.0,0.0,85,0.00,,,0.00,WeatherCatV1.21B27,2013-08-08 11:21:00,
2013-08-08 04:26:00,59.3,54.8,29.91,West,261,0.0,0.0,85,0.00,,,0.00,WeatherCatV1.21B27,2013-08-08 11:26:00,
2013-08-08 04:31:00,59.2,54.7,29.91,West,261,0.0,0.0,85,0.00,,,0.00,WeatherCatV1.21B27,2013-08-08 11:31:00,
2013-08-08 04:36:00,59.1,54.6,29.91,West,260,0.0,0.0,85,0.00,,,0.00,WeatherCatV1.21B27,2013-08-08 11:36:00,
2013-08-08 04:41:00,59.0,54.5,29.91,West,261,0.0,0.0,85,0.00,,,0.00,WeatherCatV1.21B27,2013-08-08 11:41:00,
2013-08-08 04:46:00,58.9,54.4,29.91,West,261,0.0,0.0,85,0.00,,,0.00,WeatherCatV1.21B27,2013-08-08 11:46:00,
2013-08-08 04:51:00,58.7,54.2,29.91,West,260,0.0,0.0,85,0.00,,,0.00,WeatherCatV1.21B27,2013-08-08 11:51:00,
2013-08-08 04:56:00,58.6,54.4,29.91,West,260,0.0,0.0,86,0.00,,,0.00,WeatherCatV1.21B27,2013-08-08 11:56:00,
2013-08-08 05:01:00,58.6,54.1,29.91,West,260,0.0,0.0,85,0.00,,,0.00,WeatherCatV1.21B27,2013-08-08 12:01:00,
2013-08-08 05:06:00,58.4,53.9,29.91,West,260,0.0,0.0,85,0.00,,,0.00,WeatherCatV1.21B27,2013-08-08 12:06:00,
2013-08-08 05:11:00,58.3,53.8,29.91,West,260,0.0,0.0,85,0.00,,,0.00,WeatherCatV1.21B27,2013-08-08 12:11:00,
2013-08-08 05:16:00,58.2,54.0,29.91,West,261,0.0,0.0,86,0.00,,,0.00,WeatherCatV1.21B27,2013-08-08 12:16:00,
2013-08-08 05:21:00,58.1,53.9,29.91,West,261,0.0,0.0,86,0.00,,,0.00,WeatherCatV1.21B27,2013-08-08 12:21:00,
2013-08-08 05:26:00,57.9,53.7,29.91,West,261,0.0,0.0,86,0.00,,,0.00,WeatherCatV1.21B27,2013-08-08 12:26:00,
2013-08-08 05:31:00,57.7,53.5,29.91,West,261,0.0,0.0,86,0.00,,,0.00,WeatherCatV1.21B27,2013-08-08 12:31:00,
2013-08-08 05:36:00,57.6,53.4,29.91,West,261,0.0,0.0,86,0.00,,,0.00,WeatherCatV1.21B27,2013-08-08 12:36:00,
2013-08-08 05:41:00,57.5,53.3,29.92,West,260,0.0,0.0,86,0.00,,,0.00,WeatherCatV1.21B27,2013-08-08 12:41:00,
2013-08-08 05:46:00,57.3,53.2,29.92,West,261,0.0,0.0,86,0.00,,,0.00,WeatherCatV1.21B27,2013-08-08 12:46:00,
2013-08-08 05:51:00,57.2,53.0,29.92,West,261,0.0,0.0,86,0.00,,,0.00,WeatherCatV1.21B27,2013-08-08 12:51:00,
2013-08-08 05:56:00,57.1,53.3,29.92,West,261,0.0,0.0,87,0.00,,,0.00,WeatherCatV1.21B27,2013-08-08 12:56:00,
2013-08-08 06:01:00,57.0,53.2,29.92,West,261,0.0,0.0,87,0.00,,,0.00,WeatherCatV1.21B27,2013-08-08 13:01:00,
2013-08-08 06:06:00,56.8,53.0,29.92,West,261,0.0,0.0,87,0.00,,,0.00,WeatherCatV1.21B27,2013-08-08 13:06:00,
2013-08-08 06:11:00,56.7,52.9,29.92,West,261,0.0,0.0,87,0.00,,,0.00,WeatherCatV1.21B27,2013-08-08 13:11:00,
2013-08-08 06:16:00,56.5,52.7,29.92,West,260,0.0,0.0,87,0.00,,,0.00,WeatherCatV1.21B27,2013-08-08 13:16:00,
2013-08-08 06:21:00,56.4,52.6,29.93,West,260,0.0,0.0,87,0.00,,,0.00,WeatherCatV1.21B27,2013-08-08 13:21:00,
2013-08-08 06:26:00,56.3,52.8,29.93,West,261,0.0,0.0,88,0.00,,,0.00,WeatherCatV1.21B27,2013-08-08 13:26:00,
2013-08-08 06:31:00,56.2,52.7,29.93,West,261,0.0,0.0,88,0.00,,,0.00,WeatherCatV1.21B27,2013-08-08 13:31:00,
2013-08-08 06:36:00,56.1,52.9,29.93,West,260,0.0,0.0,89,0.00,,,0.00,WeatherCatV1.21B27,2013-08-08 13:36:00,
2013-08-08 06:41:00,56.1,52.9,29.93,West,260,0.0,0.0,89,0.00,,,0.00,WeatherCatV1.21B27,2013-08-08 13:41:00,
2013-08-08 06:46:00,56.2,53.3,29.93,West,260,0.0,0.0,90,0.00,,,0.00,WeatherCatV1.21B27,2013-08-08 13:46:00,
2013-08-08 06:51:00,56.2,53.3,29.93,West,260,0.0,0.0,90,0.00,,,0.00,WeatherCatV1.21B27,2013-08-08 13:51:00,
2013-08-08 06:56:00,56.3,53.4,29.94,West,260,0.0,0.0,90,0.00,,,0.00,WeatherCatV1.21B27,2013-08-08 13:56:00,
2013-08-08 07:01:00,56.4,53.5,29.94,West,260,0.0,0.0,90,0.00,,,0.00,WeatherCatV1.21B27,2013-08-08 14:01:00,
2013-08-08 07:06:00,56.8,54.2,29.94,West,259,0.0,4.0,91,0.00,,,0.00,WeatherCatV1.21B27,2013-08-08 14:06:00,
2013-08-08 07:11:00,57.1,54.5,29.94,WSW,257,0.0,1.0,91,0.00,,,0.00,WeatherCatV1.21B27,2013-08-08 14:11:00,
2013-08-08 07:16:00,57.5,54.9,29.94,WSW,256,0.0,2.0,91,0.00,,,0.00,WeatherCatV1.21B27,2013-08-08 14:16:00,
2013-08-08 07:21:00,57.8,54.9,29.94,WSW,256,0.0,0.0,90,0.00,,,0.00,WeatherCatV1.21B27,2013-08-08 14:21:00,
2013-08-08 07:26:00,58.1,55.2,29.94,WSW,256,1.0,2.0,90,0.00,,,0.00,WeatherCatV1.21B27,2013-08-08 14:26:00,
2013-08-08 07:31:00,58.4,55.2,29.95,WSW,257,0.0,1.0,89,0.00,,,0.00,WeatherCatV1.21B27,2013-08-08 14:31:00,
2013-08-08 07:36:00,58.8,55.6,29.94,WSW,257,0.0,1.0,89,0.00,,,0.00,WeatherCatV1.21B27,2013-08-08 14:36:00,
2013-08-08 07:41:00,59.1,55.5,29.95,WSW,257,0.0,0.0,88,0.00,,,0.00,WeatherCatV1.21B27,2013-08-08 14:41:00,
2013-08-08 07:46:00,59.5,55.9,29.94,WSW,256,0.0,0.0,88,0.00,,,0.00,WeatherCatV1.21B27,2013-08-08 14:46:00,
2013-08-08 07:51:00,60.0,56.4,29.94,WSW,256,0.0,1.0,88,0.00,,,0.00,WeatherCatV1.21B27,2013-08-08 14:51:00,
2013-08-08 07:56:00,60.6,56.7,29.95,WSW,256,0.0,3.0,87,0.00,,,0.00,WeatherCatV1.21B27,2013-08-08 14:56:00,
2013-08-08 08:01:00,61.0,56.8,29.95,WSW,254,0.0,0.0,86,0.00,,,0.00,WeatherCatV1.21B27,2013-08-08 15:01:00,
2013-08-08 08:06:00,61.6,57.0,29.95,WSW,256,0.0,0.0,85,0.00,,,0.00,WeatherCatV1.21B27,2013-08-08 15:06:00,
2013-08-08 08:11:00,62.1,57.2,29.95,West,263,0.0,4.0,84,0.00,,,0.00,WeatherCatV1.21B27,2013-08-08 15:11:00,
2013-08-08 08:16:00,62.5,57.3,29.95,West,263,0.0,1.0,83,0.00,,,0.00,WeatherCatV1.21B27,2013-08-08 15:16:00,
2013-08-08 08:21:00,63.1,57.5,29.95,West,265,0.0,2.0,82,0.00,,,0.00,WeatherCatV1.21B27,2013-08-08 15:21:00,
2013-08-08 08:26:00,63.6,58.0,29.95,West,267,0.0,0.0,82,0.00,,,0.00,WeatherCatV1.21B27,2013-08-08 15:26:00,
2013-08-08 08:31:00,64.1,57.8,29.95,West,267,0.0,1.0,80,0.00,,,0.00,WeatherCatV1.21B27,2013-08-08 15:31:00,
2013-08-08 08:36:00,64.7,57.7,29.95,West,265,1.0,4.0,78,0.00,,,0.00,WeatherCatV1.21B27,2013-08-08 15:36:00,
2013-08-08 08:41:00,65.2,58.2,29.95,West,265,3.0,3.0,78,0.00,,,0.00,WeatherCatV1.21B27,2013-08-08 15:41:00,
2013-08-08 08:46:00,65.6,57.8,29.95,West,265,0.0,1.0,76,0.00,,,0.00,WeatherCatV1.21B27,2013-08-08 15:46:00,
2013-08-08 08:51:00,66.0,58.2,29.95,West,271,0.0,0.0,76,0.00,,,0.00,WeatherCatV1.21B27,2013-08-08 15:51:00,
2013-08-08 08:56:00,66.5,58.3,29.95,West,271,0.0,1.0,75,0.00,,,0.00,WeatherCatV1.21B27,2013-08-08 15:56:00,
2013-08-08 09:01:00,67.2,59.0,29.95,West,271,0.0,2.0,75,0.00,,,0.00,WeatherCatV1.21B27,2013-08-08 16:01:00,
2013-08-08 09:06:00,67.7,59.1,29.95,West,271,0.0,1.0,74,0.00,,,0.00,WeatherCatV1.21B27,2013-08-08 16:06:00,
2013-08-08 09:11:00,68.2,58.4,29.94,West,271,0.0,2.0,71,0.00,,,0.00,WeatherCatV1.21B27,2013-08-08 16:11:00,
2013-08-08 09:16:00,68.8,59.0,29.94,West,271,0.0,1.0,71,0.00,,,0.00,WeatherCatV1.21B27,2013-08-08 16:16:00,
2013-08-08 09:21:00,69.3,59.5,29.94,WSW,252,0.0,1.0,71,0.00,,,0.00,WeatherCatV1.21B27,2013-08-08 16:21:00,
2013-08-08 09:26:00,69.7,58.2,29.94,WSW,257,0.0,2.0,67,0.00,,,0.00,WeatherCatV1.21B27,2013-08-08 16:26:00,
2013-08-08 09:31:00,70.3,59.6,29.94,WSW,257,0.0,0.0,69,0.00,,,0.00,WeatherCatV1.21B27,2013-08-08 16:31:00,
2013-08-08 09:36:00,70.5,58.6,29.94,WSW,257,0.0,2.0,66,0.00,,,0.00,WeatherCatV1.21B27,2013-08-08 16:36:00,
2013-08-08 09:41:00,70.7,60.0,29.94,WSW,255,0.0,0.0,69,0.00,,,0.00,WeatherCatV1.21B27,2013-08-08 16:41:00,
2013-08-08 09:46:00,71.2,59.7,29.94,WNW,288,1.0,1.0,67,0.00,,,0.00,WeatherCatV1.21B27,2013-08-08 16:46:00,
2013-08-08 09:51:00,71.7,59.7,29.94,WNW,286,0.0,1.0,66,0.00,,,0.00,WeatherCatV1.21B27,2013-08-08 16:51:00,
2013-08-08 09:56:00,72.1,59.7,29.94,WSW,257,0.0,2.0,65,0.00,,,0.00,WeatherCatV1.21B27,2013-08-08 16:56:00,
2013-08-08 10:01:00,72.2,59.3,29.94,NW,315,0.0,1.0,64,0.00,,,0.00,WeatherCatV1.21B27,2013-08-08 17:01:00,
2013-08-08 10:06:00,72.8,60.3,29.94,NW,319,1.0,4.0,65,0.00,,,0.00,WeatherCatV1.21B27,2013-08-08 17:06:00,
2013-08-08 10:11:00,72.9,59.5,29.94,NW,325,0.0,4.0,63,0.00,,,0.00,WeatherCatV1.21B27,2013-08-08 17:11:00,
2013-08-08 10:16:00,73.0,59.6,29.94,West,271,1.0,2.0,63,0.00,,,0.00,WeatherCatV1.21B27,2013-08-08 17:16:00,
2013-08-08 10:21:00,74.0,61.0,29.94,West,271,0.0,1.0,64,0.00,,,0.00,WeatherCatV1.21B27,2013-08-08 17:21:00,
2013-08-08 10:26:00,74.0,60.1,29.94,WNW,295,0.0,3.0,62,0.00,,,0.00,WeatherCatV1.21B27,2013-08-08 17:26:00,
2013-08-08 10:31:00,74.6,60.2,29.94,West,276,0.0,1.0,61,0.00,,,0.00,WeatherCatV1.21B27,2013-08-08 17:31:00,
2013-08-08 10:36:00,74.8,60.4,29.94,WSW,237,0.0,3.0,61,0.00,,,0.00,WeatherCatV1.21B27,2013-08-08 17:36:00,
2013-08-08 10:41:00,74.7,60.3,29.94,NW,316,0.0,1.0,61,0.00,,,0.00,WeatherCatV1.21B27,2013-08-08 17:41:00,
2013-08-08 10:46:00,74.8,60.4,29.94,NW,323,0.0,0.0,61,0.00,,,0.00,WeatherCatV1.21B27,2013-08-08 17:46:00,
2013-08-08 10:51:00,75.1,60.7,29.94,NW,322,0.0,2.0,61,0.00,,,0.00,WeatherCatV1.21B27,2013-08-08 17:51:00,
2013-08-08 10:56:00,75.7,60.3,29.94,West,261,0.0,3.0,59,0.00,,,0.00,WeatherCatV1.21B27,2013-08-08 17:56:00,
2013-08-08 11:01:00,76.4,61.5,29.93,NW,310,0.0,3.0,60,0.00,,,0.00,WeatherCatV1.21B27,2013-08-08 18:01:00,
2013-08-08 11:06:00,77.0,61.5,29.93,NW,307,0.0,1.0,59,0.00,,,0.00,WeatherCatV1.21B27,2013-08-08 18:06:00,
2013-08-08 11:11:00,77.3,61.3,29.93,NW,314,0.0,1.0,58,0.00,,,0.00,WeatherCatV1.21B27,2013-08-08 18:11:00,
2013-08-08 11:16:00,77.6,61.6,29.93,WNW,299,0.0,3.0,58,0.00,,,0.00,WeatherCatV1.21B27,2013-08-08 18:16:00,
2013-08-08 11:21:00,77.9,60.4,29.93,WNW,287,0.0,0.0,55,0.00,,,0.00,WeatherCatV1.21B27,2013-08-08 18:21:00,
2013-08-08 11:26:00,78.2,61.2,29.93,West,269,2.0,2.0,56,0.00,,,0.00,WeatherCatV1.21B27,2013-08-08 18:26:00,
2013-08-08 11:31:00,78.4,60.9,29.93,SW,231,2.0,3.0,55,0.00,,,0.00,WeatherCatV1.21B27,2013-08-08 18:31:00,
2013-08-08 11:36:00,78.8,61.8,29.93,WNW,300,0.0,4.0,56,0.00,,,0.00,WeatherCatV1.21B27,2013-08-08 18:36:00,
2013-08-08 11:41:00,78.9,60.8,29.92,WSW,245,0.0,1.0,54,0.00,,,0.00,WeatherCatV1.21B27,2013-08-08 18:41:00,
2013-08-08 11:46:00,79.3,62.2,29.92,NW,309,2.0,4.0,56,0.00,,,0.00,WeatherCatV1.21B27,2013-08-08 18:46:00,
2013-08-08 11:51:00,79.4,61.8,29.92,WSW,256,0.0,2.0,55,0.00,,,0.00,WeatherCatV1.21B27,2013-08-08 18:51:00,
2013-08-08 11:56:00,79.2,60.6,29.92,WSW,244,0.0,1.0,53,0.00,,,0.00,WeatherCatV1.21B27,2013-08-08 18:56:00,
2013-08-08 12:01:00,79.5,59.8,29.92,West,269,1.0,3.0,51,0.00,,,0.00,WeatherCatV1.21B27,2013-08-08 19:01:00,
2013-08-08 12:06:00,79.8,60.0,29.92,SSW,213,0.0,4.0,51,0.00,,,0.00,WeatherCatV1.21B27,2013-08-08 19:06:00,
2013-08-08 12:11:00,80.4,61.7,29.92,SW,217,2.0,5.0,53,0.00,,,0.00,WeatherCatV1.21B27,2013-08-08 19:11:00,
2013-08-08 12:16:00,80.6,60.2,29.92,SW,221,1.0,3.0,50,0.00,,,0.00,WeatherCatV1.21B27,2013-08-08 19:16:00,
2013-08-08 12:21:00,80.7,60.9,29.91,SW,219,1.0,1.0,51,0.00,,,0.00,WeatherCatV1.21B27,2013-08-08 19:21:00,
2013-08-08 12:26:00,81.0,61.1,29.92,WSW,238,1.0,3.0,51,0.00,,,0.00,WeatherCatV1.21B27,2013-08-08 19:26:00,
2013-08-08 12:31:00,80.9,60.5,29.91,SW,235,0.0,3.0,50,0.00,,,0.00,WeatherCatV1.21B27,2013-08-08 19:31:00,
2013-08-08 12:36:00,81.4,61.5,29.91,SSW,211,0.0,2.0,51,0.00,,,0.00,WeatherCatV1.21B27,2013-08-08 19:36:00,
2013-08-08 12:41:00,81.8,60.7,29.91,WSW,243,2.0,3.0,49,0.00,,,0.00,WeatherCatV1.21B27,2013-08-08 19:41:00,
2013-08-08 12:46:00,82.0,61.5,29.91,SW,236,0.0,2.0,50,0.00,,,0.00,WeatherCatV1.21B27,2013-08-08 19:46:00,
2013-08-08 12:51:00,81.9,60.2,29.91,WSW,245,0.0,1.0,48,0.00,,,0.00,WeatherCatV1.21B27,2013-08-08 19:51:00,
2013-08-08 12:56:00,82.6,63.2,29.91,SW,214,0.0,0.0,52,0.00,,,0.00,WeatherCatV1.21B27,2013-08-08 19:56:00,
2013-08-08 13:01:00,83.2,61.4,29.91,SW,215,0.0,2.0,48,0.00,,,0.00,WeatherCatV1.21B27,2013-08-08 20:01:00,
2013-08-08 13:06:00,83.6,64.1,29.91,SW,224,2.0,3.0,52,0.00,,,0.00,WeatherCatV1.21B27,2013-08-08 20:06:00,
2013-08-08 13:11:00,83.9,61.5,29.90,NW,317,2.0,5.0,47,0.00,,,0.00,WeatherCatV1.21B27,2013-08-08 20:11:00,
2013-08-08 13:16:00,83.9,60.2,29.90,NNW,332,0.0,5.0,45,0.00,,,0.00,WeatherCatV1.21B27,2013-08-08 20:16:00,
2013-08-08 13:21:00,83.6,60.0,29.90,NW,306,0.0,2.0,45,0.00,,,0.00,WeatherCatV1.21B27,2013-08-08 20:21:00,
2013-08-08 13:26:00,83.6,63.5,29.90,West,261,0.0,4.0,51,0.00,,,0.00,WeatherCatV1.21B27,2013-08-08 20:26:00,
2013-08-08 13:31:00,84.1,62.3,29.90,WSW,252,0.0,4.0,48,0.00,,,0.00,WeatherCatV1.21B27,2013-08-08 20:31:00,
2013-08-08 13:34:00,84.3,63.0,29.90,WSW,245,2.0,5.0,49,0.00,,,0.00,WeatherCatV1.21B27,2013-08-08 20:34:00,
2013-08-08 13:39:00,84.5,60.8,29.90,SSW,196,2.0,5.0,45,0.00,,,0.00,WeatherCatV1.21B27,2013-08-08 20:39:00,
2013-08-08 13:44:00,84.6,60.2,29.90,West,280,0.0,0.0,44,0.00,,,0.00,WeatherCatV1.21B27,2013-08-08 20:44:00,
2013-08-08 13:49:00,84.7,59.7,29.90,NW,306,0.0,1.0,43,0.00,,,0.00,WeatherCatV1.21B27,2013-08-08 20:49:00,
2013-08-08 13:54:00,84.8,59.8,29.89,NW,304,0.0,1.0,43,0.00,,,0.00,WeatherCatV1.21B27,2013-08-08 20:54:00,
2013-08-08 13:59:00,85.1,59.4,29.89,SSW,211,0.0,0.0,42,0.00,,,0.00,WeatherCatV1.21B27,2013-08-08 20:59:00,
2013-08-08 14:04:00,85.4,60.3,29.89,NNW,336,0.0,6.0,43,0.00,,,0.00,WeatherCatV1.21B27,2013-08-08 21:04:00,
2013-08-08 14:09:00,84.9,61.2,29.89,WSW,242,0.0,5.0,45,0.00,,,0.00,WeatherCatV1.21B27,2013-08-08 21:09:00,
2013-08-08 14:14:00,85.1,63.2,29.89,NW,323,0.0,0.0,48,0.00,,,0.00,WeatherCatV1.21B27,2013-08-08 21:14:00,
2013-08-08 14:19:00,85.1,61.3,29.88,North,350,1.0,3.0,45,0.00,,,0.00,WeatherCatV1.21B27,2013-08-08 21:19:00,
2013-08-08 14:24:00,85.1,60.0,29.88,NNE,32,3.0,4.0,43,0.00,,,0.00,WeatherCatV1.21B27,2013-08-08 21:24:00,
2013-08-08 14:29:00,84.7,62.2,29.88,NNE,24,0.0,2.0,47,0.00,,,0.00,WeatherCatV1.21B27,2013-08-08 21:29:00,
2013-08-08 14:34:00,85.1,62.0,29.88,NW,317,0.0,1.0,46,0.00,,,0.00,WeatherCatV1.21B27,2013-08-08 21:34:00,
2013-08-08 14:39:00,85.3,60.9,29.88,NNW,332,3.0,8.0,44,0.00,,,0.00,WeatherCatV1.21B27,2013-08-08 21:39:00,
2013-08-08 14:44:00,84.8,59.8,29.88,NNE,19,2.0,6.0,43,0.00,,,0.00,WeatherCatV1.21B27,2013-08-08 21:44:00,
2013-08-08 14:49:00,85.3,60.9,29.88,North,9,0.0,0.0,44,0.00,,,0.00,WeatherCatV1.21B27,2013-08-08 21:49:00,
2013-08-08 14:54:00,85.8,62.0,29.87,NNW,327,0.0,4.0,45,0.00,,,0.00,WeatherCatV1.21B27,2013-08-08 21:54:00,
2013-08-08 14:59:00,86.3,60.5,29.87,NW,325,1.0,5.0,42,0.00,,,0.00,WeatherCatV1.21B27,2013-08-08 21:59:00,
2013-08-08 15:04:00,86.6,60.1,29.87,West,268,0.0,3.0,41,0.00,,,0.00,WeatherCatV1.21B27,2013-08-08 22:04:00,
2013-08-08 15:09:00,86.9,61.7,29.87,WNW,283,0.0,2.0,43,0.00,,,0.00,WeatherCatV1.21B27,2013-08-08 22:09:00,
2013-08-08 15:14:00,87.3,60.7,29.86,NW,315,1.0,2.0,41,0.00,,,0.00,WeatherCatV1.21B27,2013-08-08 22:14:00,
2013-08-08 15:19:00,87.0,60.4,29.86,NNW,330,0.0,2.0,41,0.00,,,0.00,WeatherCatV1.21B27,2013-08-08 22:19:00,
2013-08-08 15:24:00,86.9,59.6,29.87,NNW,331,0.0,2.0,40,0.00,,,0.00,WeatherCatV1.21B27,2013-08-08 22:24:00,
2013-08-08 15:29:00,86.8,60.9,29.86,NNW,338,0.0,1.0,42,0.00,,,0.00,WeatherCatV1.21B27,2013-08-08 22:29:00,
2013-08-08 15:34:00,87.4,59.4,29.86,WSW,246,0.0,4.0,39,0.00,,,0.00,WeatherCatV1.21B27,2013-08-08 22:34:00,
2013-08-08 15:39:00,87.8,59.0,29.86,NNW,328,0.0,4.0,38,0.00,,,0.00,WeatherCatV1.21B27,2013-08-08 22:39:00,
2013-08-08 15:44:00,88.3,60.2,29.86,NNW,328,0.0,0.0,39,0.00,,,0.00,WeatherCatV1.21B27,2013-08-08 22:44:00,
2013-08-08 15:49:00,88.6,61.8,29.86,NW,326,0.0,2.0,41,0.00,,,0.00,WeatherCatV1.21B27,2013-08-08 22:49:00,
2013-08-08 15:54:00,88.9,59.2,29.86,NW,326,1.0,2.0,37,0.00,,,0.00,WeatherCatV1.21B27,2013-08-08 22:54:00,
2013-08-08 15:59:00,89.1,63.7,29.86,NW,306,2.0,3.0,43,0.00,,,0.00,WeatherCatV1.21B27,2013-08-08 22:59:00,
2013-08-08 16:04:00,89.4,61.1,29.85,NW,305,0.0,1.0,39,0.00,,,0.00,WeatherCatV1.21B27,2013-08-08 23:04:00,
2013-08-08 16:09:00,89.6,60.6,29.85,WNW,296,2.0,3.0,38,0.00,,,0.00,WeatherCatV1.21B27,2013-08-08 23:09:00,
2013-08-08 16:14:00,89.6,59.1,29.85,WNW,288,0.0,1.0,36,0.00,,,0.00,WeatherCatV1.21B27,2013-08-08 23:14:00,
2013-08-08 16:19:00,89.6,58.3,29.85,NW,311,0.0,3.0,35,0.00,,,0.00,WeatherCatV1.21B27,2013-08-08 23:19:00,
2013-08-08 16:24:00,89.3,58.8,29.84,NW,323,1.0,3.0,36,0.00,,,0.00,WeatherCatV1.21B27,2013-08-08 23:24:00,
2013-08-08 16:29:00,88.9,60.7,29.84,NNW,330,2.0,4.0,39,0.00,,,0.00,WeatherCatV1.21B27,2013-08-08 23:29:00,
2013-08-08 16:34:00,89.0,58.5,29.84,NNW,330,0.0,0.0,36,0.00,,,0.00,WeatherCatV1.21B27,2013-08-08 23:34:00,
2013-08-08 16:39:00,89.0,56.1,29.84,NNW,331,0.0,1.0,33,0.00,,,0.00,WeatherCatV1.21B27,2013-08-08 23:39:00,
2013-08-08 16:44:00,88.4,57.2,29.83,NNW,345,1.0,2.0,35,0.00,,,0.00,WeatherCatV1.21B27,2013-08-08 23:44:00,
2013-08-08 16:49:00,88.1,57.0,29.83,NNW,348,0.0,1.0,35,0.00,,,0.00,WeatherCatV1.21B27,2013-08-08 23:49:00,
2013-08-08 16:54:00,88.1,56.2,29.83,North,350,0.0,4.0,34,0.00,,,0.00,WeatherCatV1.21B27,2013-08-08 23:54:00,
2013-08-08 16:59:00,87.7,56.6,29.83,North,350,0.0,0.0,35,0.00,,,0.00,WeatherCatV1.21B27,2013-08-08 23:59:00,
2013-08-08 17:04:00,87.6,53.2,29.83,North,350,2.0,2.0,31,0.00,,,0.00,WeatherCatV1.21B27,2013-08-09 00:04:00,
2013-08-08 17:09:00,87.6,56.5,29.83,North,0,2.0,4.0,35,0.00,,,0.00,WeatherCatV1.21B27,2013-08-09 00:09:00,
2013-08-08 17:14:00,87.5,56.4,29.83,North,0,3.0,4.0,35,0.00,,,0.00,WeatherCatV1.21B27,2013-08-09 00:14:00,
2013-08-08 17:19:00,87.4,57.1,29.83,North,355,0.0,2.0,36,0.00,,,0.00,WeatherCatV1.21B27,2013-08-09 00:19:00,
2013-08-08 17:24:00,87.4,57.1,29.83,North,355,0.0,3.0,36,0.00,,,0.00,WeatherCatV1.21B27,2013-08-09 00:24:00,
2013-08-08 17:29:00,87.5,56.4,29.82,North,355,1.0,4.0,35,0.00,,,0.00,WeatherCatV1.21B27,2013-08-09 00:29:00,
2013-08-08 17:34:00,87.5,54.0,29.82,North,355,2.0,4.0,32,0.00,,,0.00,WeatherCatV1.21B27,2013-08-09 00:34:00,
2013-08-08 17:39:00,87.6,53.2,29.82,North,355,1.0,1.0,31,0.00,,,0.00,WeatherCatV1.21B27,2013-08-09 00:39:00,
2013-08-08 17:44:00,87.5,55.6,29.82,North,355,0.0,1.0,34,0.00,,,0.00,WeatherCatV1.21B27,2013-08-09 00:44:00,
2013-08-08 17:49:00,87.4,53.0,29.82,North,355,2.0,2.0,31,0.00,,,0.00,WeatherCatV1.21B27,2013-08-09 00:49:00,
2013-08-08 17:54:00,87.4,53.0,29.82,North,355,0.0,1.0,31,0.00,,,0.00,WeatherCatV1.21B27,2013-08-09 00:54:00,
2013-08-08 17:59:00,87.5,53.1,29.81,North,355,0.0,0.0,31,0.00,,,0.00,WeatherCatV1.21B27,2013-08-09 00:59:00,
2013-08-08 18:04:00,87.7,54.1,29.81,North,355,0.0,1.0,32,0.00,,,0.00,WeatherCatV1.21B27,2013-08-09 01:04:00,
2013-08-08 18:09:00,87.7,54.1,29.81,North,355,0.0,2.0,32,0.00,,,0.00,WeatherCatV1.21B27,2013-08-09 01:09:00,
2013-08-08 18:14:00,87.7,54.1,29.81,North,355,0.0,2.0,32,0.00,,,0.00,WeatherCatV1.21B27,2013-08-09 01:14:00,
2013-08-08 18:19:00,87.7,53.3,29.81,North,355,0.0,0.0,31,0.00,,,0.00,WeatherCatV1.21B27,2013-08-09 01:19:00,
2013-08-08 18:24:00,87.7,54.1,29.80,North,355,0.0,0.0,32,0.00,,,0.00,WeatherCatV1.21B27,2013-08-09 01:24:00,
2013-08-08 18:29:00,87.7,55.0,29.80,North,355,0.0,1.0,33,0.00,,,0.00,WeatherCatV1.21B27,2013-08-09 01:29:00,
2013-08-08 18:34:00,87.8,57.5,29.80,North,355,0.0,0.0,36,0.00,,,0.00,WeatherCatV1.21B27,2013-08-09 01:34:00,
2013-08-08 18:39:00,87.8,58.2,29.80,North,355,0.0,0.0,37,0.00,,,0.00,WeatherCatV1.21B27,2013-08-09 01:39:00,
2013-08-08 18:44:00,87.6,58.1,29.80,North,355,0.0,1.0,37,0.00,,,0.00,WeatherCatV1.21B27,2013-08-09 01:44:00,
2013-08-08 18:49:00,87.6,58.1,29.80,North,355,0.0,0.0,37,0.00,,,0.00,WeatherCatV1.21B27,2013-08-09 01:49:00,
2013-08-08 18:54:00,87.4,57.1,29.80,North,355,0.0,0.0,36,0.00,,,0.00,WeatherCatV1.21B27,2013-08-09 01:54:00,
2013-08-08 18:55:00,87.4,56.3,29.80,North,355,0.0,0.0,35,0.00,,,0.00,WeatherCatV1.21B27,2013-08-09 01:55:00,
2013-08-08 19:00:00,87.2,58.5,29.80,North,355,0.0,0.0,38,0.00,,,0.00,WeatherCatV1.21B27,2013-08-09 02:00:00,
2013-08-08 19:05:00,86.9,58.9,29.80,North,355,0.0,0.0,39,0.00,,,0.00,WeatherCatV1.21B27,2013-08-09 02:05:00,
2013-08-08 19:10:00,86.4,57.8,29.80,North,355,0.0,0.0,38,0.00,,,0.00,WeatherCatV1.21B27,2013-08-09 02:10:00,
2013-08-08 19:15:00,85.9,58.0,29.80,North,355,0.0,0.0,39,0.00,,,0.00,WeatherCatV1.21B27,2013-08-09 02:15:00,
2013-08-08 19:20:00,85.5,57.7,29.80,North,355,0.0,0.0,39,0.00,,,0.00,WeatherCatV1.21B27,2013-08-09 02:20:00,
2013-08-08 19:25:00,84.8,58.5,29.80,North,355,0.0,0.0,41,0.00,,,0.00,WeatherCatV1.21B27,2013-08-09 02:25:00,
2013-08-08 19:30:00,83.9,61.5,29.80,North,355,0.0,0.0,47,0.00,,,0.00,WeatherCatV1.21B27,2013-08-09 02:30:00,
2013-08-08 19:35:00,83.2,62.0,29.80,North,355,0.0,0.0,49,0.00,,,0.00,WeatherCatV1.21B27,2013-08-09 02:35:00,
2013-08-08 19:40:00,82.1,62.2,29.80,North,355,0.0,0.0,51,0.00,,,0.00,WeatherCatV1.21B27,2013-08-09 02:40:00,
2013-08-08 19:45:00,81.1,62.8,29.80,North,355,0.0,0.0,54,0.00,,,0.00,WeatherCatV1.21B27,2013-08-09 02:45:00,
2013-08-08 19:50:00,80.3,62.6,29.80,North,355,0.0,0.0,55,0.00,,,0.00,WeatherCatV1.21B27,2013-08-09 02:50:00,
2013-08-08 19:55:00,79.3,61.2,29.80,North,355,0.0,0.0,54,0.00,,,0.00,WeatherCatV1.21B27,2013-08-09 02:55:00,
2013-08-08 20:00:00,78.6,59.5,29.80,North,355,0.0,0.0,52,0.00,,,0.00,WeatherCatV1.21B27,2013-08-09 03:00:00,
2013-08-08 20:05:00,77.8,58.7,29.80,North,355,0.0,0.0,52,0.00,,,0.00,WeatherCatV1.21B27,2013-08-09 03:05:00,
2013-08-08 20:10:00,76.9,59.0,29.80,North,355,0.0,0.0,54,0.00,,,0.00,WeatherCatV1.21B27,2013-08-09 03:10:00,
2013-08-08 20:15:00,76.5,59.6,29.80,North,355,0.0,0.0,56,0.00,,,0.00,WeatherCatV1.21B27,2013-08-09 03:15:00,
2013-08-08 20:20:00,75.7,59.9,29.80,North,355,0.0,0.0,58,0.00,,,0.00,WeatherCatV1.21B27,2013-08-09 03:20:00,
2013-08-08 20:25:00,75.1,59.3,29.80,North,355,0.0,0.0,58,0.00,,,0.00,WeatherCatV1.21B27,2013-08-09 03:25:00,
2013-08-08 20:30:00,74.7,58.9,29.80,North,355,0.0,0.0,58,0.00,,,0.00,WeatherCatV1.21B27,2013-08-09 03:30:00,
2013-08-08 20:35:00,74.3,58.5,29.81,North,355,0.0,0.0,58,0.00,,,0.00,WeatherCatV1.21B27,2013-08-09 03:35:00,
2013-08-08 20:40:00,73.9,58.7,29.81,North,355,0.0,0.0,59,0.00,,,0.00,WeatherCatV1.21B27,2013-08-09 03:40:00,
2013-08-08 20:45:00,73.7,58.9,29.81,North,355,0.0,0.0,60,0.00,,,0.00,WeatherCatV1.21B27,2013-08-09 03:45:00,
2013-08-08 20:50:00,73.3,59.0,29.81,North,355,0.0,0.0,61,0.00,,,0.00,WeatherCatV1.21B27,2013-08-09 03:50:00,
2013-08-08 20:55:00,73.1,58.8,29.81,North,355,0.0,0.0,61,0.00,,,0.00,WeatherCatV1.21B27,2013-08-09 03:55:00,
2013-08-08 21:00:00,72.7,58.5,29.81,North,355,0.0,0.0,61,0.00,,,0.00,WeatherCatV1.21B27,2013-08-09 04:00:00,
2013-08-08 21:01:00,72.7,58.5,29.81,North,355,0.0,0.0,61,0.00,,,0.00,WeatherCatV1.21B27,2013-08-09 04:01:00,
2013-08-08 21:06:00,72.4,58.2,29.81,North,355,0.0,0.0,61,0.00,,,0.00,WeatherCatV1.21B27,2013-08-09 04:06:00,
2013-08-08 21:07:00,72.4,58.2,29.81,North,355,0.0,0.0,61,0.00,,,0.00,WeatherCatV1.21B27,2013-08-09 04:07:00,
2013-08-08 21:12:00,72.1,57.9,29.82,North,355,0.0,0.0,61,0.00,,,0.00,WeatherCatV1.21B27,2013-08-09 04:12:00,
2013-08-08 21:17:00,71.9,57.7,29.82,North,355,0.0,0.0,61,0.00,,,0.00,WeatherCatV1.21B27,2013-08-09 04:17:00,
2013-08-08 21:22:00,71.6,57.4,29.82,North,355,0.0,0.0,61,0.00,,,0.00,WeatherCatV1.21B27,2013-08-09 04:22:00,
2013-08-08 21:27:00,71.4,57.2,29.82,North,355,0.0,0.0,61,0.00,,,0.00,WeatherCatV1.21B27,2013-08-09 04:27:00,
2013-08-08 21:32:00,71.2,57.5,29.82,North,355,0.0,0.0,62,0.00,,,0.00,WeatherCatV1.21B27,2013-08-09 04:32:00,
2013-08-08 21:37:00,70.9,57.2,29.82,North,355,0.0,0.0,62,0.00,,,0.00,WeatherCatV1.21B27,2013-08-09 04:37:00,
2013-08-08 21:42:00,70.7,57.5,29.83,North,355,0.0,0.0,63,0.00,,,0.00,WeatherCatV1.21B27,2013-08-09 04:42:00,
2013-08-08 21:47:00,70.5,57.7,29.83,North,355,0.0,0.0,64,0.00,,,0.00,WeatherCatV1.21B27,2013-08-09 04:47:00,
2013-08-08 21:52:00,70.3,57.5,29.83,North,355,0.0,0.0,64,0.00,,,0.00,WeatherCatV1.21B27,2013-08-09 04:52:00,
2013-08-08 21:57:00,70.1,57.8,29.83,North,355,0.0,0.0,65,0.00,,,0.00,WeatherCatV1.21B27,2013-08-09 04:57:00,
2013-08-08 22:02:00,69.9,58.4,29.82,North,355,0.0,0.0,67,0.00,,,0.00,WeatherCatV1.21B27,2013-08-09 05:02:00,
2013-08-08 22:07:00,69.7,58.2,29.82,North,355,0.0,0.0,67,0.00,,,0.00,WeatherCatV1.21B27,2013-08-09 05:07:00,
2013-08-08 22:12:00,69.5,58.0,29.82,North,355,0.0,0.0,67,0.00,,,0.00,WeatherCatV1.21B27,2013-08-09 05:12:00,
2013-08-08 22:17:00,69.3,58.3,29.82,North,355,0.0,0.0,68,0.00,,,0.00,WeatherCatV1.21B27,2013-08-09 05:17:00,
2013-08-08 22:22:00,69.0,58.0,29.82,North,355,0.0,0.0,68,0.00,,,0.00,WeatherCatV1.21B27,2013-08-09 05:22:00,
2013-08-08 22:27:00,68.7,58.1,29.82,North,355,0.0,0.0,69,0.00,,,0.00,WeatherCatV1.21B27,2013-08-09 05:27:00,
2013-08-08 22:32:00,68.4,57.8,29.83,North,355,0.0,0.0,69,0.00,,,0.00,WeatherCatV1.21B27,2013-08-09 05:32:00,
2013-08-08 22:37:00,68.2,57.6,29.83,North,355,0.0,0.0,69,0.00,,,0.00,WeatherCatV1.21B27,2013-08-09 05:37:00,
2013-08-08 22:42:00,67.9,57.7,29.83,North,355,0.0,0.0,70,0.00,,,0.00,WeatherCatV1.21B27,2013-08-09 05:42:00,
2013-08-08 22:47:00,67.7,58.0,29.83,North,355,0.0,0.0,71,0.00,,,0.00,WeatherCatV1.21B27,2013-08-09 05:47:00,
2013-08-08 22:52:00,67.4,57.7,29.83,North,355,0.0,0.0,71,0.00,,,0.00,WeatherCatV1.21B27,2013-08-09 05:52:00,
2013-08-08 22:57:00,67.1,57.4,29.83,North,355,0.0,0.0,71,0.00,,,0.00,WeatherCatV1.21B27,2013-08-09 05:57:00,
2013-08-08 23:02:00,66.9,57.6,29.83,North,355,0.0,0.0,72,0.00,,,0.00,WeatherCatV1.21B27,2013-08-09 06:02:00,
2013-08-08 23:07:00,66.8,57.5,29.83,North,355,0.0,0.0,72,0.00,,,0.00,WeatherCatV1.21B27,2013-08-09 06:07:00,
2013-08-08 23:12:00,66.6,57.7,29.83,North,355,0.0,0.0,73,0.00,,,0.00,WeatherCatV1.21B27,2013-08-09 06:12:00,
2013-08-08 23:17:00,66.5,57.6,29.83,North,355,0.0,0.0,73,0.00,,,0.00,WeatherCatV1.21B27,2013-08-09 06:17:00,
2013-08-08 23:22:00,66.3,57.4,29.83,North,355,0.0,0.0,73,0.00,,,0.00,WeatherCatV1.21B27,2013-08-09 06:22:00,
2013-08-08 23:27:00,66.1,57.2,29.83,North,355,0.0,0.0,73,0.00,,,0.00,WeatherCatV1.21B27,2013-08-09 06:27:00,
2013-08-08 23:32:00,66.0,57.5,29.83,North,355,0.0,0.0,74,0.00,,,0.00,WeatherCatV1.21B27,2013-08-09 06:32:00,
2013-08-08 23:37:00,65.9,57.4,29.83,North,355,0.0,0.0,74,0.00,,,0.00,WeatherCatV1.21B27,2013-08-09 06:37:00,
2013-08-08 23:42:00,65.8,57.3,29.83,North,355,0.0,0.0,74,0.00,,,0.00,WeatherCatV1.21B27,2013-08-09 06:42:00,
2013-08-08 23:47:00,65.7,57.5,29.84,North,355,0.0,0.0,75,0.00,,,0.00,WeatherCatV1.21B27,2013-08-09 06:47:00,
2013-08-08 23:52:00,65.7,57.5,29.84,North,355,0.0,1.0,75,0.00,,,0.00,WeatherCatV1.21B27,2013-08-09 06:52:00,
2013-08-08 23:57:00,65.8,57.7,29.84,North,355,0.0,1.0,75,0.00,,,0.00,WeatherCatV1.21B27,2013-08-09 06:57:00,